SCP
-0 0 -0 -0 -0 -0 -0 -0 -0 -0 -0 -0 -0 -0 -0 -0 -0 -0 -0 -0 -0 -0 -0 -0 -0 -0 -0 -0 -0 -0 -0 -0 -0 -0 -0 0 0 0 0 0 0 0 0
0 0 -0 0 0 0 -0 -0 -0 -0 -0 -0 -0 -0 -0 -0 -0 -0 -0 -0 -0 -0 -0 -0 -0 -0 -0 -0 -0 -0 -0 -0 -0 -0 0 0 0 0 0 0 0 0 0
0 0 0 -0 -0 -0 -0 -0 -0 -0 -0 -0 -0 0 -0 -0 -0 -0 -0 -0 -0 -0 -0 -0 -0 -0 -0 -0 -0 -0 -0 -0 -0 -0 0 0 0 0 0 0 0 0 0
-0 0 0 -0 -0 -0 -0 -0 -0 -0 -0 -0 -0 -0 -0 -0 -0 -0 -0 -0 -0 -0 -0 -0 -0 -0 -0 -0 -0 -0 -0 -0 -0 0 0 0 0 0 0 0 0 0 0
-0 0 0 -0 -0 0 -0 -0 0 -0 -0 0 -0 -0 -0 -0 -0 -0 -0 -0 -0 -0 -0 -0 -0 -0 -0 -0 -0 -0 -0 -0 0 0 0 0 0 0 0 0 0 0 0
0 -0 0 0 -0 0 0 0 -0 -0 -0 -0 -0 -0 -0 -0 -0 -0 -0 -0 -0 -0 -0 -0 -0 -0 -0 -0 -0 -0 -0 0 0 0 0 0 0 0 0 0 0 0 0
0 0 0 0 0 0 0 -0 -0 0 -0 -0 -0 -0 -0 -0 -0 -0 -0 -0 -0 -0 -0 -0 -0 -0 -0 -0 -0 -0 0 0 0 0 0 0 0 0 0 0 0 0 0
-0 0 0 0 0 0 0 -0 -0 -0 -0 -0 -0 0 -0 0 -0 -0 -0 -0 -0 -0 -0 -0 -0 -0 -0 -0 -0 -0 0 0 0 0 0 0 0 0 0 0 0 0 0
0 -0 -0 0 -0 0 0 -0 -0 -0 0 -0 0 0 0 0 0 0 -0 -0 -0 -0 -0 -0 -0 -0 -0 -0 -0 0 0 0 0 0 0 0 0 0 0 0 0 0 0
0 0 -0 -0 -0 -0 -0 -0 0 0 0 0 0 0 0 0 0 0 0 -0 -0 -0 -0 -0 -0 -0 -0 0 0 0 0 0 0 0 0 0 0 0 0 0 0 0 0
0 0 0 0 -0 -0 0 0 0 0 0 0 0 0 0 0 0 0 0 -0 -0 -0 -0 -0 -0 -0 0 0 0 0 0 -0 0 0 0 0 0 0 0 0 0 0 0
0 0 0 -0 0 0 0 0 0 0 0 0 0 0 0 0 0 0 0 0 0 0 -0 -0 -0 0 0 0 -0 0 0 -0 0 0 0 0 0 0 0 0 0 0 0
0 0 0 0 0 -0 0 0 0 0 0 0 0 0 0 0 0 0 0 0 0 0 0 0 0 0 -0 -0 -0 -0 0 0 -0 0 0 0 0 0 0 0 0 0 0
0 0 0 -0 -0 -0 0 0 0 0 0 0 0 0 0 0 0 0 0 0 0 0 0 0 0 0 0 -0 -0 -0 -0 -0 -0 0 0 0 0 0 0 0 0 0 0
0 0 -0 -0 -0 -0 0 0 0 0 0 0 0 0 0 0 0 0 0 0 0 0 0 0 0 0 0 0 -0 -0 -0 -0 0 0 0 0 0 0 0 0 0 0 0
0 -0 -0 -0 -0 -0 0 0 0 0 0 0 0 0 0 0 0 0 0 0 0 0 0 0 0 0 0 0 0 0 0 0 0 0 0 0 0 0 0 0 0 0 0
0 -0 -0 -0 -0 0 0 0 0 0 0 0 0 0 0 0 0 0 0 0 0 0 0 0 0 0 0 0 0 0 0 0 0 0 0 0 0 0 0 0 0 0 0
0 -0 0 0 0 0 0 0 0 0 0 0 0 0 0 0 0 0 0 0 0 0 0 0 0 0 0 0 0 0 0 0 0 0 0 0 0 0 0 0 0 0 0
0 0 0 0 0 0 0 0 0 0 0 0 0 0 0 0 0 0 0 0 0 0 0 0 0 0 0 0 0 0 0 0 0 0 0 0 0 0 0 0 0 0 0
0 0 0 0 0 0 0 0 0 0 0 0 0 0 0 0 0 0 0 0 0 0 0 0 0 0 0 0 0 0 0 0 0 0 0 0 0 0 0 0 0 0 0
0 0 0 0 0 0 0 0 0 0 0 0 0 0 0 0 0 0 0 0 0 0 0 0 0 0 0 0 0 0 0 0 0 0 0 0 0 0 0 0 0 0 0
0 0 0 0 0 0 0 0 0 0 0 0 0 0 0 0 0 0 0 0 0 0 0 0 0 0 0 0 0 0 0 0 0 0 0 0 0 0 0 0 0 0 0
0 0 0 0 0 0 0 0 0 0 0 0 0 0 0 0 0 0 0 0 0 0 0 0 0 0 0 0 0 0 0 0 0 0 0 0 0 0 0 0 0 0 0
0 0 0 0 0 0 0 0 0 0 0 0 0 0 0 0 0 0 0 0 0 0 0 0 0 0 0 0 0 0 0 0 0 0 0 0 0 0 0 0 0 0 0
0 0 0 0 0 0 0 0 0 0 0 0 0 0 0 0 0 0 0 0 0 0 0 0 0 0 0 0 0 0 0 0 0 0 0 0 0 0 0 0 0 0 0
0 0 0 0 0 0 0 0 0 0 0 0 0 0 0 0 0 0 0 0 0 0 0 0 0 0 0 0 0 0 0 0 0 0 0 0 0 0 0 0 0 0 0
Wind_Speed_500mb
10 7 11 6 8 22 14 26 27 33 41 39 34 32 23 25 27 28 32 41 43 43 43 41 43 43 46 47 46 43 42 36 30 26 32 50 49 49 49 51 48 44 46
8 3 6 9 17 14 18 26 29 35 46 40 38 24 24 30 39 32 39 41 40 41 45 45 44 44 44 45 43 38 46 33 22 27 46 50 47 48 47 48 45 45 41
5 3 17 17 18 21 24 28 29 37 38 37 26 22 24 40 36 38 39 42 45 44 45 46 46 46 46 47 41 44 47 43 35 46 49 50 51 47 49 46 49 48 48
7 6 14 16 18 20 20 25 32 36 30 33 20 15 30 35 38 42 42 44 45 45 45 45 46 47 47 46 43 41 43 33 40 40 54 53 51 49 49 50 49 49 48
8 10 14 14 19 19 21 30 37 36 28 29 14 29 32 40 41 41 43 45 46 47 47 49 48 45 44 44 41 43 39 38 39 44 56 53 53 51 50 51 54 53 49
7 7 11 11 18 20 24 30 37 29 38 27 18 32 38 37 38 44 47 48 48 49 50 50 48 44 41 40 43 42 44 41 38 47 56 56 56 50 52 53 52 54 53
9 12 14 14 14 15 22 31 37 39 41 25 26 33 36 36 42 46 48 49 50 49 49 48 47 44 42 44 46 48 47 45 42 46 56 59 54 53 52 51 51 50 51
14 16 16 14 13 12 15 29 41 46 37 30 29 31 34 39 43 45 47 48 47 47 47 47 47 46 45 46 47 48 48 46 45 47 56 59 52 52 52 52 52 52 50
12 16 15 15 13 16 22 25 30 46 33 29 30 31 36 38 40 43 45 45 45 45 46 46 46 46 45 46 46 47 47 48 47 50 57 58 53 52 53 52 52 53 53
14 13 14 18 17 20 23 28 32 39 31 31 34 36 34 35 37 40 41 41 42 43 44 43 44 44 43 44 44 45 47 47 49 52 58 56 53 53 52 52 53 55 55
16 15 14 16 20 22 24 28 34 36 34 34 34 36 32 32 33 35 38 38 40 41 41 40 41 42 42 43 44 46 46 49 50 54 56 54 53 53 54 54 55 56 58
18 16 15 17 21 23 25 29 34 35 32 28 30 31 29 29 30 30 34 35 37 37 37 37 38 40 41 43 46 45 46 47 50 52 55 55 54 54 54 55 57 57 60
18 17 16 17 21 23 25 27 30 30 26 25 26 27 27 27 26 27 28 31 31 33 33 34 36 39 41 42 45 47 47 48 51 54 55 53 52 53 52 54 56 59 59
20 20 18 19 21 24 24 25 26 27 27 27 29 27 25 24 24 24 25 26 26 28 29 31 33 37 38 41 43 45 46 48 51 52 52 52 52 52 52 54 55 56 58
23 21 21 20 21 22 23 23 24 25 26 27 25 26 25 23 22 21 21 21 22 24 26 27 29 30 34 37 40 42 44 46 47 48 48 49 51 53 55 56 56 56 57
25 22 22 21 21 21 21 22 23 24 25 25 23 21 23 22 21 20 19 18 18 20 20 22 24 25 29 33 38 41 41 43 44 44 46 47 50 52 55 56 58 59 59
25 23 23 23 22 21 22 23 24 24 24 24 23 22 22 22 21 19 17 16 15 14 14 16 19 21 24 28 34 38 40 42 42 43 44 46 48 51 54 55 58 59 61
30 28 26 26 25 25 24 25 24 24 24 24 24 23 22 22 21 20 17 15 13 11 10 11 14 17 18 22 28 33 39 40 41 43 44 46 47 51 54 56 58 60 62
33 32 30 29 28 27 26 25 24 23 23 25 26 25 24 23 21 20 19 16 13 10 7 7 9 12 14 14 20 24 32 37 39 41 43 45 47 51 54 57 58 60 63
39 36 35 33 31 30 28 27 26 25 25 25 26 27 26 25 23 21 20 18 15 12 7 5 5 8 10 9 12 17 22 29 35 38 41 43 47 48 53 56 58 61 63
46 45 43 39 36 32 30 29 29 27 26 26 27 27 27 26 25 23 22 21 19 15 10 6 3 4 8 7 4 7 13 19 22 33 35 37 43 48 50 55 58 60 64
53 49 48 42 38 33 30 29 28 28 29 28 28 27 27 27 27 25 24 24 21 18 14 10 6 2 4 7 3 6 3 5 13 23 29 33 37 44 48 53 55 60 65
63 57 51 45 40 36 35 35 32 31 30 30 30 29 28 28 28 28 26 25 24 21 17 13 9 6 4 2 5 2 1 3 5 11 20 26 32 38 45 50 53 57 63
69 59 52 48 45 41 39 34 30 26 27 28 29 29 30 29 29 28 28 26 26 23 19 16 13 10 7 4 2 2 4 4 3 4 12 21 27 31 40 45 48 52 58
69 64 56 52 49 46 41 37 34 34 32 31 30 31 31 30 30 29 29 28 26 22 20 18 14 13 10 8 6 5 2 3 4 6 8 14 20 24 33 39 42 46 53
70 66 62 59 55 50 45 42 40 38 34 33 33 32 31 30 31 30 29 28 26 23 21 18 16 14 12 9 7 6 4 2 3 5 6 8 15 21 25 32 35 40 46
Wind_Direction_500mb
290 32 94 116 56 117 106 98 85 97 94 87 78 82 87 75 74 69 76 73 68 67 64 65 62 64 62 59 58 57 54 54 45 38 44 48 39 34 36 36 36 35 30
264 42 103 79 95 116 100 97 82 107 104 76 88 96 87 80 82 82 79 76 76 69 65 62 62 61 62 63 62 55 55 55 39 42 61 54 41 35 35 33 28 32 28
187 32 108 97 99 86 104 106 96 112 109 89 91 90 77 88 88 86 81 72 70 67 62 63 63 65 67 67 64 60 56 59 65 64 64 57 46 35 34 33 31 27 27
213 237 125 119 114 104 117 114 108 114 109 98 96 104 86 94 88 80 75 72 69 68 66 65 66 67 68 68 66 58 57 61 67 71 59 47 44 35 33 31 27 26 25
190 143 146 155 117 120 113 115 116 108 110 101 98 100 95 87 83 83 79 74 70 68 66 65 64 68 69 66 63 57 65 70 68 59 56 43 39 32 32 31 26 25 26
115 107 107 132 124 120 123 113 118 104 102 104 107 101 94 91 91 85 78 73 70 67 65 65 64 65 66 63 60 54 57 60 58 57 56 45 41 32 30 31 24 23 21
124 122 122 124 119 130 128 127 126 118 105 128 115 100 94 97 94 85 79 73 70 67 66 65 63 62 59 53 52 54 55 53 50 54 56 50 37 32 30 28 25 24 19
133 123 124 123 121 123 124 138 136 131 123 126 123 111 109 101 95 87 80 76 73 71 68 65 62 59 55 53 53 54 53 51 46 47 55 52 37 32 29 27 24 23 19
127 121 120 114 122 124 124 127 135 139 129 132 124 112 107 103 98 89 82 78 74 72 68 64 61 57 54 54 54 53 52 49 44 43 50 46 37 33 30 28 25 23 20
136 128 124 126 122 122 128 129 133 141 141 126 122 113 109 104 98 90 83 80 76 72 69 65 61 58 56 56 55 54 52 49 45 43 47 44 38 35 31 29 26 24 21
151 141 130 119 123 125 131 135 133 134 132 132 126 115 113 108 101 96 88 81 78 74 70 68 65 61 58 57 56 53 49 47 45 44 46 44 38 36 32 31 28 26 22
160 151 141 136 138 138 138 140 140 140 137 135 128 122 121 115 109 101 93 86 80 76 74 70 66 64 61 58 56 54 51 48 46 45 45 43 41 37 34 32 31 27 24
162 160 151 148 147 146 149 150 149 148 146 143 138 132 131 125 117 109 99 91 85 82 78 74 70 66 62 60 56 52 50 48 47 46 45 42 41 38 34 32 31 29 23
175 170 159 155 160 159 160 160 157 157 156 153 148 145 141 137 131 121 109 101 94 88 81 75 70 66 63 60 56 53 51 49 48 46 43 40 38 38 33 30 29 27 24
183 174 168 165 167 165 168 167 169 164 164 162 159 153 148 146 139 132 124 111 101 90 83 77 73 69 65 60 58 54 53 51 48 45 42 40 37 35 33 29 28 25 22
186 181 177 172 177 173 175 179 178 176 173 172 170 165 159 156 153 146 137 125 112 99 89 80 77 71 67 63 59 56 54 53 49 46 42 38 33 31 30 28 26 25 22
190 190 184 183 181 182 187 187 186 187 181 181 181 177 173 169 166 160 152 144 128 112 99 88 79 72 68 65 61 55 53 52 48 45 42 36 32 29 29 27 27 25 24
201 196 193 192 189 190 191 192 191 190 190 189 189 189 186 184 180 173 169 164 152 141 118 91 75 70 68 67 64 56 51 49 45 41 36 33 30 29 28 28 26 25 24
208 205 201 199 197 196 194 194 195 195 196 196 196 196 194 194 192 186 185 181 176 169 141 101 77 65 61 67 70 61 54 50 45 40 34 30 27 27 26 28 26 25 25
214 210 208 206 204 201 197 198 199 199 202 202 201 202 201 202 200 197 197 194 194 195 178 136 86 60 52 63 70 71 60 53 45 40 34 28 27 26 25 26 26 27 27
218 214 212 211 209 207 204 204 203 205 206 205 205 206 205 207 206 205 206 205 207 205 201 189 149 81 55 71 77 70 61 52 42 37 31 25 25 27 26 27 27 28 30
223 218 215 213 213 210 207 210 212 211 207 207 210 210 209 210 211 211 211 213 214 214 213 214 213 181 63 44 49 41 25 35 44 38 30 25 25 26 28 30 30 32 33
224 221 219 217 214 212 212 214 212 213 212 213 213 211 212 212 213 215 215 218 219 220 221 224 229 230 219 79 58 71 316 12 30 39 30 26 27 26 31 33 34 36 39
225 224 220 219 216 213 219 218 218 226 225 218 215 215 214 213 214 217 218 219 223 223 225 227 233 239 234 228 190 114 98 70 55 73 31 29 27 28 32 37 38 39 43
226 225 222 219 217 217 219 218 218 220 221 219 218 216 216 214 215 217 219 220 225 226 227 229 232 239 239 233 229 224 182 96 77 67 65 43 29 32 36 39 41 43 43
224 224 224 220 218 218 217 218 220 223 224 222 220 218 217 215 216 217 219 221 223 225 227 228 231 235 234 231 227 232 225 212 124 82 65 52 36 37 41 42 44 47 42
Wind_Speed_850mb
10 7 11 6 8 22 14 26 27 33 41 39 34 32 23 25 27 28 32 41 43 43 43 41 43 43 46 47 46 43 42 36 30 26 32 50 49 49 49 51 48 44 46
8 3 6 9 17 14 18 26 29 35 46 40 38 24 24 30 39 32 39 41 40 41 45 45 44 44 44 45 43 38 46 33 22 27 46 50 47 48 47 48 45 45 41
5 3 17 17 18 21 24 28 29 37 38 37 26 22 24 40 36 38 39 42 45 44 45 46 46 46 46 47 41 44 47 43 35 46 49 50 51 47 49 46 49 48 48
7 6 14 16 18 20 20 25 32 36 30 33 20 15 30 35 38 42 42 44 45 45 45 45 46 47 47 46 43 41 43 33 40 40 54 53 51 49 49 50 49 49 48
8 10 14 14 19 19 21 30 37 36 28 29 14 29 32 40 41 41 43 45 46 47 47 49 48 45 44 44 41 43 39 38 39 44 56 53 53 51 50 51 54 53 49
7 7 11 11 18 20 24 30 37 29 38 27 18 32 38 37 38 44 47 48 48 49 50 50 48 44 41 40 43 42 44 41 38 47 56 56 56 50 52 53 52 54 53
9 12 14 14 14 15 22 31 37 39 41 25 26 33 36 36 42 46 48 49 50 49 49 48 47 44 42 44 46 48 47 45 42 46 56 59 54 53 52 51 51 50 51
14 16 16 14 13 12 15 29 41 46 37 30 29 31 34 39 43 45 47 48 47 47 47 47 47 46 45 46 47 48 48 46 45 47 56 59 52 52 52 52 52 52 50
12 16 15 15 13 16 22 25 30 46 33 29 30 31 36 38 40 43 45 45 45 45 46 46 46 46 45 46 46 47 47 48 47 50 57 58 53 52 53 52 52 53 53
14 13 14 18 17 20 23 28 32 39 31 31 34 36 34 35 37 40 41 41 42 43 44 43 44 44 43 44 44 45 47 47 49 52 58 56 53 53 52 52 53 55 55
16 15 14 16 20 22 24 28 34 36 34 34 34 36 32 32 33 35 38 38 40 41 41 40 41 42 42 43 44 46 46 49 50 54 56 54 53 53 54 54 55 56 58
18 16 15 17 21 23 25 29 34 35 32 28 30 31 29 29 30 30 34 35 37 37 37 37 38 40 41 43 46 45 46 47 50 52 55 55 54 54 54 55 57 57 60
18 17 16 17 21 23 25 27 30 30 26 25 26 27 27 27 26 27 28 31 31 33 33 34 36 39 41 42 45 47 47 48 51 54 55 53 52 53 52 54 56 59 59
20 20 18 19 21 24 24 25 26 27 27 27 29 27 25 24 24 24 25 26 26 28 29 31 33 37 38 41 43 45 46 48 51 52 52 52 52 52 52 54 55 56 58
23 21 21 20 21 22 23 23 24 25 26 27 25 26 25 23 22 21 21 21 22 24 26 27 29 30 34 37 40 42 44 46 47 48 48 49 51 53 55 56 56 56 57
25 22 22 21 21 21 21 22 23 24 25 25 23 21 23 22 21 20 19 18 18 20 20 22 24 25 29 33 38 41 41 43 44 44 46 47 50 52 55 56 58 59 59
25 23 23 23 22 21 22 23 24 24 24 24 23 22 22 22 21 19 17 16 15 14 14 16 19 21 24 28 34 38 40 42 42 43 44 46 48 51 54 55 58 59 61
30 28 26 26 25 25 24 25 24 24 24 24 24 23 22 22 21 20 17 15 13 11 10 11 14 17 18 22 28 33 39 40 41 43 44 46 47 51 54 56 58 60 62
33 32 30 29 28 27 26 25 24 23 23 25 26 25 24 23 21 20 19 16 13 10 7 7 9 12 14 14 20 24 32 37 39 41 43 45 47 51 54 57 58 60 63
39 36 35 33 31 30 28 27 26 25 25 25 26 27 26 25 23 21 20 18 15 12 7 5 5 8 10 9 12 17 22 29 35 38 41 43 47 48 53 56 58 61 63
46 45 43 39 36 32 30 29 29 27 26 26 27 27 27 26 25 23 22 21 19 15 10 6 3 4 8 7 4 7 13 19 22 33 35 37 43 48 50 55 58 60 64
53 49 48 42 38 33 30 29 28 28 29 28 28 27 27 27 27 25 24 24 21 18 14 10 6 2 4 7 3 6 3 5 13 23 29 33 37 44 48 53 55 60 65
63 57 51 45 40 36 35 35 32 31 30 30 30 29 28 28 28 28 26 25 24 21 17 13 9 6 4 2 5 2 1 3 5 11 20 26 32 38 45 50 53 57 63
69 59 52 48 45 41 39 34 30 26 27 28 29 29 30 29 29 28 28 26 26 23 19 16 13 10 7 4 2 2 4 4 3 4 12 21 27 31 40 45 48 52 58
69 64 56 52 49 46 41 37 34 34 32 31 30 31 31 30 30 29 29 28 26 22 20 18 14 13 10 8 6 5 2 3 4 6 8 14 20 24 33 39 42 46 53
70 66 62 59 55 50 45 42 40 38 34 33 33 32 31 30 31 30 29 28 26 23 21 18 16 14 12 9 7 6 4 2 3 5 6 8 15 21 25 32 35 40 46
Wind_Direction_850mb
290 32 94 116 56 117 106 98 85 97 94 87 78 82 87 75 74 69 76 73 68 67 64 65 62 64 62 59 58 57 54 54 45 38 44 48 39 34 36 36 36 35 30
264 42 103 79 95 116 100 97 82 107 104 76 88 96 87 80 82 82 79 76 76 69 65 62 62 61 62 63 62 55 55 55 39 42 61 54 41 35 35 33 28 32 28
187 32 108 97 99 86 104 106 96 112 109 89 91 90 77 88 88 86 81 72 70 67 62 63 63 65 67 67 64 60 56 59 65 64 64 57 46 35 34 33 31 27 27
213 237 125 119 114 104 117 114 108 114 109 98 96 104 86 94 88 80 75 72 69 68 66 65 66 67 68 68 66 58 57 61 67 71 59 47 44 35 33 31 27 26 25
190 143 146 155 117 120 113 115 116 108 110 101 98 100 95 87 83 83 79 74 70 68 66 65 64 68 69 66 63 57 65 70 68 59 56 43 39 32 32 31 26 25 26
115 107 107 132 124 120 123 113 118 104 102 104 107 101 94 91 91 85 78 73 70 67 65 65 64 65 66 63 60 54 57 60 58 57 56 45 41 32 30 31 24 23 21
124 122 122 124 119 130 128 127 126 118 105 128 115 100 94 97 94 85 79 73 70 67 66 65 63 62 59 53 52 54 55 53 50 54 56 50 37 32 30 28 25 24 19
133 123 124 123 121 123 124 138 136 131 123 126 123 111 109 101 95 87 80 76 73 71 68 65 62 59 55 53 53 54 53 51 46 47 55 52 37 32 29 27 24 23 19
127 121 120 114 122 124 124 127 135 139 129 132 124 112 107 103 98 89 82 78 74 72 68 64 61 57 54 54 54 53 52 49 44 43 50 46 37 33 30 28 25 23 20
136 128 124 126 122 122 128 129 133 141 141 126 122 113 109 104 98 90 83 80 76 72 69 65 61 58 56 56 55 54 52 49 45 43 47 44 38 35 31 29 26 24 21
151 141 130 119 123 125 131 135 133 134 132 132 126 115 113 108 101 96 88 81 78 74 70 68 65 61 58 57 56 53 49 47 45 44 46 44 38 36 32 31 28 26 22
160 151 141 136 138 138 138 140 140 140 137 135 128 122 121 115 109 101 93 86 80 76 74 70 66 64 61 58 56 54 51 48 46 45 45 43 41 37 34 32 31 27 24
162 160 151 148 147 146 149 150 149 148 146 143 138 132 131 125 117 109 99 91 85 82 78 74 70 66 62 60 56 52 50 48 47 46 45 42 41 38 34 32 31 29 23
175 170 159 155 160 159 160 160 157 157 156 153 148 145 141 137 131 121 109 101 94 88 81 75 70 66 63 60 56 53 51 49 48 46 43 40 38 38 33 30 29 27 24
183 174 168 165 167 165 168 167 169 164 164 162 159 153 148 146 139 132 124 111 101 90 83 77 73 69 65 60 58 54 53 51 48 45 42 40 37 35 33 29 28 25 22
186 181 177 172 177 173 175 179 178 176 173 172 170 165 159 156 153 146 137 125 112 99 89 80 77 71 67 63 59 56 54 53 49 46 42 38 33 31 30 28 26 25 22
190 190 184 183 181 182 187 187 186 187 181 181 181 177 173 169 166 160 152 144 128 112 99 88 79 72 68 65 61 55 53 52 48 45 42 36 32 29 29 27 27 25 24
201 196 193 192 189 190 191 192 191 190 190 189 189 189 186 184 180 173 169 164 152 141 118 91 75 70 68 67 64 56 51 49 45 41 36 33 30 29 28 28 26 25 24
208 205 201 199 197 196 194 194 195 195 196 196 196 196 194 194 192 186 185 181 176 169 141 101 77 65 61 67 70 61 54 50 45 40 34 30 27 27 26 28 26 25 25
214 210 208 206 204 201 197 198 199 199 202 202 201 202 201 202 200 197 197 194 194 195 178 136 86 60 52 63 70 71 60 53 45 40 34 28 27 26 25 26 26 27 27
218 214 212 211 209 207 204 204 203 205 206 205 205 206 205 207 206 205 206 205 207 205 201 189 149 81 55 71 77 70 61 52 42 37 31 25 25 27 26 27 27 28 30
223 218 215 213 213 210 207 210 212 211 207 207 210 210 209 210 211 211 211 213 214 214 213 214 213 181 63 44 49 41 25 35 44 38 30 25 25 26 28 30 30 32 33
224 221 219 217 214 212 212 214 212 213 212 213 213 211 212 212 213 215 215 218 219 220 221 224 229 230 219 79 58 71 316 12 30 39 30 26 27 26 31 33 34 36 39
225 224 220 219 216 213 219 218 218 226 225 218 215 215 214 213 214 217 218 219 223 223 225 227 233 239 234 228 190 114 98 70 55 73 31 29 27 28 32 37 38 39 43
226 225 222 219 217 217 219 218 218 220 221 219 218 216 216 214 215 217 219 220 225 226 227 229 232 239 239 233 229 224 182 96 77 67 65 43 29 32 36 39 41 43 43
224 224 224 220 218 218 217 218 220 223 224 222 220 218 217 215 216 217 219 221 223 225 227 228 231 235 234 231 227 232 225 212 124 82 65 52 36 37 41 42 44 47 42